Weather in Vizim'yary

Russia / Mari El Republic     56°26′06″N   46°56′25″E
temp.,
°C
wind,
m/s
gust,
m/s
humid.,
%
clouds,
%
prec.,
mm/h
press.,
hPa
HPBL,
m
19 september, sun
sun1900:00+1nnw24876 0.0 102582
03:00+1nw22825 0.0 102537
06:000nnw248634 0.0 102693
09:00+6nnw246094 0.0 1026679
12:00+9nw2349100 0.0 10261264
15:00+10nnw344699 0.0 10251384
18:00+5nnw226673 0.0 102610
21:00+3ne257480 0.0 1027104
20 september, mon
mon2000:00+1ene388492 0.0 1028192
03:00−1ene2789100 0.0 1028162
06:000ene3883100 0.0 1028228
09:00+5e4656100 0.0 1029706
12:00+8e3544100 0.0 10281117
15:00+9e4542100 0.0 10271161
18:00+5ene256099 0.0 1027114
21:00+3e2868100 0.0 1028189
21 september, tue
tue2100:00+3e3970100 0.0 1027228
03:00+3e31169100 0.0 1026298
06:00+2e41171100 0.0 1026346
09:00+7ese5957100 0.0 1025517
12:00+9ese574899 0.0 1025890
15:00+11e464592 0.0 10231039
18:00+9e4952100 0.0 1023569
21:00+7e4116183 0.0 1023451
22 september, wed
wed2200:00+6e4116684 0.0 1022393
03:00+6e41265100 0.0 1021407
06:00+7e51363100 0.0 1021448
09:00+10e5105227 0.0 1021575
12:00+13e695047 0.0 1021835
15:00+14e594966 0.0 1021921
18:00+10e5126082 0.0 1021509
21:00+9e41263100 0.0 1021553
23 september, thu
thu2300:00+9e41169100 0.0 1021576
03:00+9ese41194100 0.8 1021553
06:00+10ese41095100 0.3 1021512
09:00+11ese41086100 0.3 1021552
12:00+14se596699 0.0 1021709
15:00+12se51076100 0.4 1020805
18:00+11se51193100 2.9 1021689
21:00+11sse51192100 3.4 1021719